This demonstration page uses our WeatherBlox Daily Observations layout. Learn more.

Hourly Observations for January 24, 2020

Temp ( °F °C ) Dew Point ( °F °C ) Humidity (%) Winds ( mph kmh ) Pressure ( in mb ) Visibility ( mi km ) Precip ( " mm )
12:15 am 00:15 Cloudy 36 2 36 2 100 100 ESE 7 11 30.01 1016 7 11.26538 N/A
12:35 am 00:35 Cloudy 36 2 36 2 100 100 ESE 9 15 30 1016 5 8.0467 N/A
12:56 am 00:56 Cloudy 36 2 36 2 100 100 SE 9 15 29.99 1016 7 11.26538 N/A
1:15 am 01:15 Cloudy 37 3 37 3 100 100 ESE 9 15 29.96 1015 7 11.26538 N/A
1:36 am 01:36 Cloudy 37 3 37 3 100 100 SE 7 11 29.95 1014 7 11.26538 N/A
1:55 am 01:55 Cloudy 37 3 37 3 100 100 SE 9 15 29.95 1014 10 16.0934 N/A
2:16 am 02:16 Cloudy 37 3 37 3 100 100 SE 8 13 29.94 1014 10 16.0934 N/A
2:35 am 02:35 Cloudy 37 3 37 3 100 100 SE 8 13 29.94 1014 10 16.0934 N/A
2:55 am 02:55 Cloudy 37 3 37 3 100 100 SE 9 15 29.94 1014 3 4.82802 N/A
3:16 am 03:16 Cloudy 37 3 37 3 100 100 SE 9 15 29.93 1014 4 6.43736 N/A
3:36 am 03:36 Cloudy 37 3 37 3 100 100 SSE 7 11 29.93 1014 4 6.43736 N/A
3:55 am 03:55 Cloudy 37 3 37 3 100 100 SE 8 13 29.93 1014 2.5 4.02335 N/A
4:15 am 04:15 Cloudy 37 3 37 3 100 100 SE 10 17 29.92 1013 4 6.43736 N/A
4:35 am 04:35 Cloudy 37 3 37 3 100 100 SE 8 13 29.92 1013 7 11.26538 N/A
4:55 am 04:55 Cloudy 37 3 37 3 100 100 SE 8 13 29.92 1013 7 11.26538 N/A
5:15 am 05:15 Cloudy 37 3 37 3 100 100 SE 8 13 29.91 1013 7 11.26538 N/A
5:35 am 05:35 Cloudy 37 3 37 3 100 100 SSE 7 11 29.91 1013 3 4.82802 N/A
5:55 am 05:55 Cloudy 37 3 37 3 100 100 SE 8 13 29.91 1013 2.5 4.02335 N/A
6:16 am 06:16 Cloudy 37 3 37 3 100 100 SE 7 11 29.9 1013 2.5 4.02335 N/A
6:35 am 06:35 Cloudy 37 3 37 3 100 100 SE 7 11 29.91 1013 2.5 4.02335 N/A
6:55 am 06:55 Cloudy 37 3 37 3 100 100 SE 6 9 29.9 1013 4 6.43736 N/A
7:16 am 07:16 Cloudy 37 3 37 3 100 100 SE 7 11 29.9 1013 4 6.43736 N/A
7:35 am 07:35 Cloudy 37 3 37 3 100 100 SE 7 11 29.9 1013 5 8.0467 N/A
7:56 am 07:56 Cloudy 37 3 37 3 100 100 SE 7 11 29.9 1013 5 8.0467 N/A
8:16 am 08:16 Cloudy 37 3 37 3 100 100 SE 7 11 29.9 1013 5 8.0467 N/A
8:35 am 08:35 Cloudy 39 4 39 4 100 100 SE 8 13 29.9 1013 5 8.0467 N/A
8:55 am 08:55 Cloudy 37 3 37 3 100 100 SE 7 11 29.9 1013 5 8.0467 N/A
9:16 am 09:16 Cloudy 39 4 39 4 100 100 SE 6 9 29.9 1013 5 8.0467 N/A
9:35 am 09:35 Cloudy 39 4 39 4 100 100 SE 6 9 29.9 1013 4 6.43736 N/A
9:55 am 09:55 Cloudy 39 4 39 4 100 100 SE 7 11 29.9 1013 2 3.21868 N/A
10:15 am 10:15 Cloudy 39 4 39 4 100 100 SE 7 11 29.89 1012 5 8.0467 N/A
10:35 am 10:35 Cloudy 39 4 39 4 100 100 SE 6 9 29.9 1013 5 8.0467 N/A
10:56 am 10:56 Cloudy 39 4 39 4 100 100 SE 7 11 29.9 1013 4 6.43736 N/A
11:16 am 11:16 Cloudy 39 4 39 4 100 100 SE 3 6 29.88 1012 4 6.43736 N/A
11:35 am 11:35 Cloudy 39 4 39 4 100 100 SSE 5 7 29.89 1012 5 8.0467 N/A
11:55 am 11:55 Cloudy 39 4 39 4 100 100 SE 5 7 29.89 1012 2.5 4.02335 N/A
12:15 pm 12:15 Cloudy 39 4 39 4 100 100 SE 3 6 29.87 1012 2.5 4.02335 N/A
12:35 pm 12:35 Cloudy 39 4 39 4 100 100 Calm 29.85 1011 1.75 2.816345 N/A
12:56 pm 12:56 Cloudy 41 5 41 5 100 100 SSE 6 9 29.86 1011 1.25 2.011675 N/A
1:15 pm 13:15 Cloudy 41 5 41 5 100 100 SSE 5 7 29.84 1010 0.75 1.207005 N/A
1:35 pm 13:35 Cloudy 41 5 41 5 100 100 SE 3 6 29.83 1010 0.75 1.207005 N/A
1:55 pm 13:55 Cloudy 41 5 41 5 100 100 SSE 6 9 29.84 1010 0.5 0.80467 N/A
2:15 pm 14:15 Cloudy 41 5 41 5 100 100 S 3 6 29.82 1010 0.25 0.402335 N/A
2:36 pm 14:36 Cloudy 41 5 41 5 100 100 Calm 29.81 1009 0.25 0.402335 N/A
2:55 pm 14:55 Cloudy 41 5 41 5 100 100 S 3 6 29.82 1010 0.25 0.402335 N/A
3:15 pm 15:15 Cloudy 41 5 41 5 100 100 SSE 3 6 29.82 1010 0.5 0.80467 N/A
3:35 pm 15:35 Cloudy 41 5 41 5 100 100 Calm 29.81 1009 1 1.60934 N/A
3:55 pm 15:55 Cloudy 41 5 41 5 100 100 SW 5 7 29.82 1010 2.5 4.02335 N/A
4:15 pm 16:15 Cloudy 41 5 41 5 100 100 W 6 9 29.82 1010 3 4.82802 N/A
4:36 pm 16:36 Cloudy 41 5 41 5 100 100 WSW 7 11 29.82 1010 5 8.0467 N/A
4:56 pm 16:56 Cloudy 39 4 39 4 100 100 WSW 12 19 29.83 1010 4 6.43736 N/A
5:15 pm 17:15 Cloudy 39 4 39 4 100 100 WSW 10 17 29.84 1011 10 16.0934 N/A
5:35 pm 17:35 Cloudy 39 4 39 4 100 100 WSW 9 15 29.84 1011 10 16.0934 N/A
5:55 pm 17:55 Cloudy 37 3 37 3 100 100 WSW 8 13 29.85 1011 7 11.26538 N/A
6:15 pm 18:15 Cloudy 37 3 37 3 100 100 WSW 10 17 29.85 1011 10 16.0934 N/A
6:36 pm 18:36 Cloudy 37 3 37 3 100 100 SW 8 13 29.86 1011 10 16.0934 N/A
6:55 pm 18:55 Cloudy 37 3 37 3 100 100 SSW 5 7 29.87 1012 10 16.0934 N/A
7:15 pm 19:15 Cloudy 37 3 37 3 100 100 SSW 5 7 29.87 1012 7 11.26538 N/A
7:36 pm 19:36 Cloudy 37 3 37 3 100 100 SW 7 11 29.87 1012 7 11.26538 N/A
7:55 pm 19:55 Cloudy 37 3 37 3 100 100 WSW 8 13 29.87 1012 7 11.26538 N/A
8:16 pm 20:16 Cloudy 37 3 37 3 100 100 WSW 5 7 29.87 1012 7 11.26538 N/A
8:35 pm 20:35 Cloudy 36 2 36 2 100 100 SW 6 9 29.88 1012 7 11.26538 N/A
8:56 pm 20:56 Cloudy 36 2 36 2 100 100 SSW 3 6 29.89 1012 7 11.26538 N/A
9:15 pm 21:15 Cloudy 36 2 36 2 100 100 S 5 7 29.89 1012 5 8.0467 N/A
9:35 pm 21:35 Cloudy 36 2 36 2 100 100 S 5 7 29.89 1012 5 8.0467 N/A
9:56 pm 21:56 Cloudy 36 2 36 2 100 100 SW 6 9 29.89 1012 5 8.0467 N/A
10:15 pm 22:15 Cloudy 36 2 36 2 100 100 SW 7 11 29.89 1012 5 8.0467 N/A
10:36 pm 22:36 Cloudy 36 2 36 2 100 100 SW 6 9 29.89 1012 5 8.0467 N/A
10:56 pm 22:56 Cloudy 36 2 36 2 100 100 SW 3 6 29.89 1012 4 6.43736 N/A
11:16 pm 23:16 Cloudy 36 2 36 2 100 100 SW 7 11 29.9 1012 5 8.0467 N/A
11:36 pm 23:36 Cloudy 36 2 36 2 100 100 SW 5 7 29.9 1012 7 11.26538 N/A
11:55 pm 23:55 Cloudy 36 2 36 2 100 100 SW 5 7 29.9 1012 7 11.26538 N/A

Powered by AerisWeather